Location: Unspecified
(0.0000°N, 0.0000°E)
Time: 06:53:13
(UTC+00:00)

Vanguard 2 Rocket - Pass Details

Date: 03 October 2023
Orbit: 552 x 3312 km, 32.9° (Epoch: 06 December)

Event Time Altitude Azimuth Distance (km) Brightness Sun altitude
Rises 17:53:39 0° 302° (WNW) 6,996 12.4 -1.1°
Reaches altitude 10° 17:58:48 10° 300° (WNW) 5,702 12.0 -2.4°
Maximum altitude 18:14:50 72° 218° (SW) 2,028 8.8 -6.4°
Drops below altitude 10° 18:23:47 10° 134° (SE) 3,364 9.4 -8.7°
Sets 18:26:04 0° 132° (SE) 4,065 9.8 -9.2°
